Regional Weather Roundup
Issued by NWS

Home | Current Version | Previous Version | Graphics & Text | Print | Product List | Glossary On
Versions: 1 2 3 4 5 6 7 8 9 10 11 12 13 14 15 16 17 18 19 20 21 22 23 24 25 26 27 28 29 30 31 32 33 34 35 36 37 38 39 40 41 42 43 44 45 46 47 48 49 50
000
ASUS43 KFSD 260910
RWRSD

WEATHER ROUNDUP FOR SOUTH DAKOTA
NATIONAL WEATHER SERVICE SIOUX FALLS SD
400 AM CDT SAT MAY 26 2018

NOTE: "FAIR" INDICATES FEW OR NO CLOUDS BELOW 12,000 FEET WITH NO
SIGNIFICANT WEATHER AND/OR OBSTRUCTIONS TO VISIBILITY.


SDZ001>005-009-010-012>017-261000-
NORTHWEST AND NORTH CENTRAL SOUTH DAKOTA

CITY           SKY/WX    TMP DP  RH WIND       PRES   REMARKS
BUFFALO          N/A     60  48  64 W6        29.79S
FAITH            N/A     66  50  56 NW6       29.83S
MOBRIDGE       CLEAR     58  53  84 CALM      29.75R
$$

SDZ012>016-024>037-041>051-057-063-072>074-261000-
SOUTHWEST AND SOUTH CENTRAL SOUTH DAKOTA

CITY           SKY/WX    TMP DP  RH WIND       PRES   REMARKS
RAPID CTY ARPT CLEAR     57  53  86 NW6       29.85F
PIERRE         CLEAR     63  60  90 W6        29.77S
CUSTER         CLEAR     52  48  86 NW3       30.00S
ELLSWORTH AFB  CLEAR     63  56  78 CALM      29.85F
PHILIP         CLEAR     59  58  96 W3        29.81S
PINE RIDGE     CLEAR     57  53  86 NW3       29.87F
SPEARFISH      FAIR      59  52  77 CALM      29.90S
WINNER         FAIR      66  56  70 SW6       29.81S
$$

SDZ004>011-016>023-039-040-261000-
NORTHEAST SOUTH DAKOTA

CITY           SKY/WX    TMP DP  RH WIND       PRES   REMARKS
ABERDEEN       CLEAR     63  54  72 NW6       29.72R
WATERTOWN      CLEAR     61  56  83 CALM      29.74S
BROOKINGS      CLEAR     62  55  77 CALM      29.76S
SISSETON         N/A     70  54  56 W6        29.67S
$$

SDZ017-020-022-023-036>040-048>070-261000-
SOUTHEAST SOUTH DAKOTA

CITY           SKY/WX    TMP DP  RH WIND       PRES   REMARKS
SIOUX FALLS    CLEAR     60  56  86 CALM      29.75F
HURON          CLEAR     60  55  83 W3        29.74S
CHAMBERLAIN    CLEAR     64  64 100 CALM      29.79S
MITCHELL       CLEAR     65  56  72 SW3       29.76S
YANKTON        CLEAR     63  59  87 CALM      29.77S
$$

ABBREVIATIONS USED IN REMARKS
   TC - TEMPERATURE IN CELSIUS
  WCI - WIND CHILL INDEX
   HX - HEAT INDEX
  VSB - VISIBILITY




USA.gov is the U.S. government's official web portal to all federal, state and local government web resources and services.